Location: Huntsville
(41.2590°N, 111.7678°W)
Time: 00:21:29
(UTC+00:00)

Courier 1B Rocket - Pass Details

Date: 21 June 2021
Orbit: 920 x 1202 km, 28.2° (Epoch: 31 July)

Event Time Altitude Azimuth Distance (km) Brightness Sun altitude
Rises 04:21:27 0° 251° (WSW) 3,735 8.4 -12.1°
Reaches altitude 10° 04:24:41 10° 238° (WSW) 2,737 7.5 -12.5°
Maximum altitude 04:29:49 24° 187° (S) 1,845 6.1 -13.1°
Enters shadow 04:32:40 18° 151° (SSE) 2,128 6.2 -13.5°
Drops below altitude 10° 04:34:45 10° 135° (SE) 2,627 - -13.8°
Sets 04:37:48 0° 122° (ESE) 3,553 - -14.1°
